Home   Weather   Wamsutter   Past weeks
Flag for USA

Past Weather in Wamsutter, Wyoming, USA — Yesterday and Last 2 Weeks

Now
59 °F

Sunny.


Feels Like: 57 °F
Forecast: 67 / 31 °F
Wind: 13 mph from West

Location: Rawlins Municipal

Current Time: Oct 15, 2019 at 6:54:50 pm

Latest Report: Oct 15, 2019 at 5:53 pm


Visibility: 10 mi

Pressure: 30.11 "Hg (23.58 "Hg at 2064m altitude)

Humidity: 19%

Dew Point: 17 °F

Location of WamsutterLocation

Past Weather in Wamsutter — Graph

°F

Wamsutter Temperature Yesterday

Maximum temperature yesterday: 63 °F (at 2:53 pm)
Minimum temperature yesterday: 38 °F (at 1:53 am)
Average temperature yesterday: 50 °F

High & Low Weather Summary for the Past Weeks

 TemperatureHumidityPressure
High69 °F (Oct 4, 1:53 pm)93% (Oct 1, 5:53 am)30.50 "Hg (Oct 1, 5:53 am)
Low12 °F (Oct 11, 6:53 am)7% (Oct 7, 2:53 pm)29.42 "Hg (Oct 9, 12:53 pm)
Average41 °F44%30.02 "Hg
* Reported Sep 30 4:53 pm — Oct 15 4:53 pm, Wamsutter. Weather by CustomWeather, © 2019

Note: Actual official high and low records may vary slightly from our data, if they occured in-between our weather recording intervals... More about our weather records

Advertising

Wamsutter Weather History for the Previous 24 Hours

Scroll right to see more
 ConditionsComfort  
Time TempWeatherWind HumidityBarometerVisibility
4:53 pm
Tue, Oct 15
60 °FSunny.17 mph15%30.09 "Hg10 mi
3:53 pm62 °FSunny.16 mph14%30.10 "Hg10 mi
2:53 pm61 °FSunny.14 mph14%30.10 "Hg10 mi
1:53 pm60 °FSunny.16 mph15%30.10 "Hg10 mi
12:53 pm58 °FSunny.20 mph17%30.12 "Hg10 mi
11:53 am55 °FSunny.22 mph21%30.12 "Hg10 mi
10:53 am51 °FSunny.12 mph24%30.12 "Hg10 mi
9:53 am47 °FSunny.14 mph25%30.14 "Hg10 mi
8:53 am43 °FSunny.6 mph28%30.12 "Hg10 mi
7:53 am36 °FSunny.3 mph37%30.13 "Hg10 mi
6:53 am32 °FClear.6 mph43%30.14 "Hg10 mi
5:53 am31 °FClear.3 mph43%30.12 "Hg10 mi
4:53 am34 °FClear.3 mph40%30.09 "Hg10 mi
3:53 am30 °FClear.3 mph45%30.10 "Hg10 mi
2:53 am30 °FClear.3 mph43%30.07 "Hg10 mi
1:53 am33 °FClear.3 mph36%30.05 "Hg10 mi
12:53 am36 °FClear.No wind31%30.01 "Hg10 mi
11:53 pm
Mon, Oct 14
42 °FClear.7 mph24%29.96 "Hg10 mi
10:53 pm46 °FClear.16 mph20%29.95 "Hg10 mi
9:53 pm48 °FClear.16 mph18%29.94 "Hg10 mi
8:53 pm53 °FClear.21 mph14%29.91 "Hg10 mi
7:53 pm51 °FClear.16 mph16%29.92 "Hg10 mi
6:53 pm54 °FClear.16 mph13%29.89 "Hg10 mi
Weather by CustomWeather, © 2019

See weather overview